This is the latest recevied weather packets stored in our database for station/object DH4SBM. If no packets are shown the sender has not sent any weather packets the latest 10 day(s).
| Time | Temp. | Humidity | Pressure | Rain* | Wind** | Luminosity | Snow |
|---|---|---|---|---|---|---|---|
| 1777908345 | 21.67° C | 47% | 1013.3 hPa | 0 mm | - | 290 W/m² | - |
| 1777907745 | 22.22° C | 45% | 1013.2 hPa | 0 mm | - | 209 W/m² | - |
| 1777907145 | 22.22° C | 43% | 1013.2 hPa | 0 mm | - | 155 W/m² | - |
| 1777906545 | 22.22° C | 44% | 1013.4 hPa | 0 mm | - | 360 W/m² | - |
| 1777905945 | 22.22° C | 44% | 1013.5 hPa | 0 mm | - | 330 W/m² | - |
| 1777905345 | 22.22° C | 42% | 1013.6 hPa | 0 mm | - | 475 W/m² | - |
| 1777904745 | 22.22° C | 44% | 1013.5 hPa | 0 mm | - | 475 W/m² | - |
| 1777904145 | 22.22° C | 42% | 1013.9 hPa | 0 mm | - | 519 W/m² | - |
| 1777903545 | 22.22° C | 44% | 1014 hPa | 0 mm | - | 550 W/m² | - |
| 1777902945 | 21.67° C | 46% | 1014 hPa | 0 mm | - | 580 W/m² | - |
| 1777902345 | 21.67° C | 44% | 1014.1 hPa | 0 mm | - | 283 W/m² | - |
| 1777901745 | 21.67° C | 45% | 1014.1 hPa | 0 mm | - | 299 W/m² | - |
| 1777901144 | 21.11° C | 45% | 1014.2 hPa | 0 mm | - | 729 W/m² | - |
| 1777900544 | 21.11° C | 46% | 1014.4 hPa | 0 mm | - | 459 W/m² | - |
| 1777899944 | 21.11° C | 49% | 1014.4 hPa | 0 mm | - | 329 W/m² | - |
| 1777899344 | 20.56° C | 50% | 1014.5 hPa | 0 mm | - | 313 W/m² | - |
| 1777898742 | 20.56° C | 51% | 1014.4 hPa | 0 mm | - | 258 W/m² | - |
| 1777898310 | 20.56° C | 50% | 1014.4 hPa | 0 mm | - | 255 W/m² | - |
| 1777898144 | 20.56° C | 50% | 1014.4 hPa | 0 mm | - | 255 W/m² | - |
| 1777897544 | 20.56° C | 51% | 1014.6 hPa | 0 mm | - | 204 W/m² | - |
| 1777896944 | 20.56° C | 49% | 1014.5 hPa | 0 mm | - | 197 W/m² | - |
| 1777896344 | 20.56° C | 49% | 1014.7 hPa | 0 mm | - | 234 W/m² | - |
| 1777895744 | 21.11° C | 48% | 1014.8 hPa | 0 mm | - | 299 W/m² | - |
| 1777895144 | 21.11° C | 48% | 1014.9 hPa | 0 mm | - | 297 W/m² | - |
| 1777894544 | 21.67° C | 47% | 1014.9 hPa | 0 mm | - | 257 W/m² | - |
* Rain latest hour (hover to see other rain measurements)
** Current wind speed in m/s (hover to see current wind gust speed)